FW3284 Weather Reports


Display with metric or nautical units.
time (UTC)temp
F
wind
direction
speed
MPH
gust
MPH
rain 1hr
in
rain 24hr
in
rain mn
in
humidity
%
barometer
mb
20240615040106 74 96 2.0 4.0 0.00 0.49 0.49 85 1014.7
20240615034518 74 102 2.0 4.0 0.00 0.49 0.49 84 1014.5
20240615033100 75 109 3.0 4.0 0.00 0.49 0.49 83 1014.4
20240615033002 75 105 3.0 4.0 0.00 0.49 0.49 83 1014.4
20240615031546 75 105 3.0 4.0 0.00 0.49 0.49 82 1014.4
20240615030010 76 103 3.0 5.0 0.00 0.49 0.49 81 1014.4
20240615024546 76 102 4.0 6.0 0.00 0.49 0.49 81 1014.3
20240615023033 76 78 4.0 5.0 0.00 0.49 0.49 81 1014.3
20240615021509 77 92 4.0 6.0 0.00 0.49 0.49 80 1014.1
20240615020055 77 80 3.0 6.0 0.00 0.49 0.49 79 1014.1
20240615014516 78 101 4.0 6.0 0.00 0.49 0.49 77 1014.0
20240615013059 79 79 4.0 6.0 0.00 0.49 0.49 75 1014.0
20240615013004 79 92 4.0 7.0 0.00 0.49 0.49 75 1014.0
20240615011543 80 84 4.0 7.0 0.00 0.49 0.49 74 1014.0
20240615010004 81 77 5.0 8.0 0.00 0.49 0.49 73 1014.0
20240615004538 81 75 3.0 7.0 0.00 0.49 0.49 73 1014.0
20240615003050 82 66 5.0 7.0 0.00 0.49 0.49 71 1014.0
20240615001515 82 79 4.0 9.0 0.00 0.49 0.49 70 1014.0
20240615000058 82 73 5.0 10.0 0.00 0.49 0.49 69 1014.0
20240614234522 83 54 4.0 7.0 0.00 0.49 0.49 70 1013.9
20240614233058 83 58 6.0 13.0 0.00 0.49 0.49 69 1014.0
20240614231540 83 82 4.0 9.0 0.00 0.49 0.49 70 1014.0
20240614230010 84 51 6.0 11.0 0.00 0.49 0.49 67 1014.1
20240614224547 84 88 4.0 9.0 0.00 0.49 0.49 68 1014.2
20240614223034 84 23 5.0 9.0 0.00 0.49 0.49 68 1014.3
20240614221521 84 20 3.0 8.0 0.00 0.49 0.49 68 1014.4
20240614220055 84 11 4.0 9.0 0.00 0.49 0.49 70 1014.5
20240614214525 84 56 5.0 9.0 0.00 0.49 0.49 66 1014.6
20240614213100 83 30 5.0 9.0 0.00 0.49 0.49 69 1014.6
20240614213003 83 4 4.0 9.0 0.00 0.49 0.49 69 1014.7
20240614211546 84 51 5.0 10.0 0.00 0.49 0.49 70 1014.7
20240614210036 84 49 4.0 9.0 0.00 0.49 0.49 67 1014.7
20240614204607 84 85 3.0 8.0 0.00 0.49 0.49 67 1014.7
20240614203030 84 61 3.0 6.0 0.00 0.49 0.49 70 1014.8
20240614201516 85 326 3.0 9.0 0.00 0.49 0.49 67 1014.9
20240614200059 85 32 3.0 7.0 0.00 0.49 0.49 66 1014.9
20240614194530 85 25 4.0 10.0 0.00 0.49 0.49 66 1015.1
20240614193012 85 300 2.0 6.0 0.00 0.49 0.49 65 1015.1
20240614191557 85 359 1.0 10.0 0.00 0.49 0.49 68 1015.2
20240614190015 84 314 2.0 8.0 0.00 0.49 0.49 71 1015.2
20240614184505 84 335 6.0 12.0 0.00 0.49 0.49 70 1015.4
20240614183040 84 314 4.0 9.0 0.00 0.49 0.49 70 1015.5
20240614181536 84 348 2.0 7.0 0.00 0.49 0.49 68 1015.5
20240614180122 82 304 4.0 6.0 0.00 0.49 0.49 72 1015.5
20240614174540 82 32 2.0 10.0 0.00 0.49 0.49 71 1015.7
20240614173030 81 323 4.0 9.0 0.00 0.49 0.49 71 1016.0
20240614171526 81 317 2.0 8.0 0.00 0.49 0.49 75 1016.0
20240614170056 81 285 2.0 6.0 0.00 0.49 0.49 73 1015.9
20240614164522 80 283 2.0 5.0 0.00 0.49 0.49 73 1015.8
20240614163011 81 290 1.0 8.0 0.00 0.49 0.49 71 1015.7
20240614161548 80 98 1.0 5.0 0.00 0.49 0.49 70 1015.7
20240614160010 78 285 0.0 7.0 0.00 0.49 0.49 72 1015.6
20240614154544 77 302 5.0 8.0 0.00 0.49 0.49 71 1015.7
20240614153053 77 269 2.0 4.0 0.00 0.49 0.49 72 1015.6
20240614151516 76 309 1.0 4.0 0.00 0.49 0.49 74 1015.5
20240614150056 74 360 2.0 9.0 0.00 0.49 0.49 78 1015.7
20240614144527 73 32 5.0 9.0 0.00 0.49 0.49 78 1015.6
20240614143006 74 41 2.0 7.0 0.00 0.49 0.49 80 1015.5
20240614141544 73 326 4.0 7.0 0.00 0.49 0.49 80 1015.5
20240614140042 73 316 3.0 10.0 0.00 0.49 0.49 83 1015.3
20240614134504 71 304 4.0 11.0 0.00 0.49 0.49 86 1015.0
20240614133042 71 326 6.0 10.0 0.00 0.49 0.49 86 1014.5
20240614131528 71 293 1.0 3.0 0.00 0.49 0.49 87 1013.7
20240614130119 70 317 4.0 5.0 0.00 0.49 0.49 86 1013.3
20240614124529 70 302 0.0 3.0 0.00 0.49 0.49 91 1013.1
20240614123021 69 115 0.0 2.0 0.00 0.49 0.49 92 1012.6
20240614121553 67 120 0.0 2.0 0.00 0.49 0.49 95 1012.5
20240614120050 65 209 1.0 2.0 0.00 0.49 0.49 95 1012.4
20240614114520 64 113 0.0 2.0 0.00 0.49 0.49 94 1012.2
20240614113102 64 305 0.0 2.0 0.00 0.49 0.49 94 1012.3
20240614111540 64 51 0.0 2.0 0.00 0.49 0.49 94 1012.4
20240614110025 64 51 0.0 2.0 0.00 0.49 0.49 94 1012.3
20240614104540 64 51 1.0 2.0 0.00 0.49 0.49 93 1012.7
20240614103035 65 340 0.0 4.0 0.00 0.49 0.49 93 1013.0
20240614101517 65 115 1.0 4.0 0.00 0.49 0.49 93 1013.5
20240614100058 65 122 2.0 8.0 0.00 0.49 0.49 93 1014.0
20240614094539 65 113 1.0 5.0 0.00 0.49 0.49 93 1014.4
20240614093014 65 182 2.0 6.0 0.01 0.49 0.49 93 1015.0
20240614091552 65 155 2.0 8.0 0.13 0.49 0.49 93 1015.4
20240614090038 65 120 6.0 9.0 0.15 0.49 0.49 93 1016.1
20240614084521 66 73 3.0 6.0 0.16 0.49 0.49 93 1016.6
20240614083048 66 131 1.0 6.0 0.15 0.47 0.48 92 1016.4
20240614081541 66 312 2.0 4.0 0.11 0.35 0.36 90 1016.4
20240614080002 68 234 2.0 14.0 0.28 0.34 0.34 86 1015.0
20240614074540 66 103 7.0 11.0 0.33 0.33 0.33 91 1014.6
20240614073026 66 96 4.0 21.0 0.31 0.31 0.32 89 1015.0
20240614071509 65 44 12.0 29.0 0.22 0.22 0.23 91 1015.8
20240614070049 66 37 18.0 31.0 0.07 0.07 0.07 90 1016.6
20240614064527 71 354 9.0 25.0 0.00 0.00 0.00 80 1016.6
20240614063052 71 1 3.0 4.0 0.00 0.00 0.00 89 1015.5
20240614061537 71 105 1.0 3.0 0.00 0.00 0.00 87 1014.1
20240614060108 72 122 1.0 3.0 0.00 0.00 0.00 85 1013.9
20240614054534 73 127 1.0 2.0 0.00 0.00 0.00 83 1013.6
20240614053008 74 117 0.0 3.0 0.00 0.00 0.00 82 1013.8
20240614051553 74 117 1.0 2.0 0.00 0.00 0.00 82 1013.9
20240614050012 73 129 1.0 3.0 0.00 0.00 0.00 83 1013.3
20240614044544 73 107 1.0 2.0 0.00 0.00 0.00 84 1013.5
20240614043029 76 46 2.0 6.0 0.00 0.00 0.00 77 1013.3
20240614041508 77 200 1.0 4.0 0.00 0.00 0.00 75 1013.0